This demonstration page uses our WeatherBlox Daily Observations layout. Learn more.

Left ArrowRight Arrow

31.84235, -102.49876

Hourly Observations for March 12, 2015

Temp ( °F °C ) Dew Point ( °F °C ) Humidity (%) Winds ( mph kmh ) Pressure ( in mb ) Visibility ( mi km ) Precip ( " mm )
12:53 am 00:53 Clear 49 9.4 34 1.1 56 56 E 9 15 30.19 1022 10 16 0.00 0.00
1:53 am 01:53 Clear 44 6.7 34 1.1 68 68 E 9 15 30.18 1022 10 16 0.00 0.00
2:53 am 02:53 Clear 43 6.1 34 1.1 71 71 E 7 11 30.18 1022 10 16 0.00 0.00
3:53 am 03:53 Clear 43 6.1 35 1.7 74 74 E 7 11 30.16 1021 10 16 0.00 0.00
4:53 am 04:53 Clear 42 5.6 35 1.7 76 76 E 7 11 30.14 1021 10 16 0.00 0.00
5:53 am 05:53 Clear 39 3.9 34 1.1 82 82 NW 8 13 30.14 1021 10 16 0.00 0.00
6:53 am 06:53 Clear 41 5 35 1.7 79 79 NNW 6 9 30.14 1021 10 16 0.00 0.00
7:53 am 07:53 Clear 39 3.9 33 0.6 79 79 NNW 8 13 30.17 1022 10 16 0.00 0.00
8:53 am 08:53 Sunny 44 6.7 37 2.8 76 76 NNE 5 7 30.19 1022 10 16 0.00 0.00
9:53 am 09:53 Sunny 53 11.7 41 5 64 64 Calm 30.19 1023 10 16 0.00 0.00
10:08 am 10:08 Mostly Sunny 54 12.2 41 5 62 62 SE 3 6 30.24 1024 10 16 0.00 0.00
10:53 am 10:53 Sunny 57 13.9 40 4.4 53 53 SSE 3 6 30.19 1022 10 16 0.00 0.00
11:53 am 11:53 Sunny 60 15.6 37 2.8 42 42 ESE 9 15 30.17 1022 10 16 0.00 0.00
12:53 pm 12:53 Sunny 62 16.7 35 1.7 37 37 VRB 5 7 30.15 1021 10 16 0.00 0.00
1:53 pm 13:53 Sunny 64 17.8 33 0.6 32 32 E 6 9 30.12 1020 10 16 0.00 0.00
2:53 pm 14:53 Sunny 67 19.4 33 0.6 28 28 SE 8 13 30.08 1019 10 16 0.00 0.00
3:53 pm 15:53 Sunny 68 20 32 0 26 26 VRB 3 6 30.04 1017 10 16 0.00 0.00
4:53 pm 16:53 Sunny 68 20 30 -1.1 24 24 N 7 11 30.03 1017 10 16 0.00 0.00
5:53 pm 17:53 Sunny 69 20.6 28 -2.2 22 22 NNE 5 7 30.02 1017 10 16 0.00 0.00
6:53 pm 18:53 Sunny 67 19.4 28 -2.2 23 23 Calm 30.01 1016 10 16 0.00 0.00
7:53 pm 19:53 Sunny 62 16.7 32 0 32 32 NNE 5 7 30.04 1017 10 16 0.00 0.00
8:53 pm 20:53 Clear 60 15.6 32 0 35 35 NNE 6 9 30.04 1017 10 16 0.00 0.00
9:53 pm 21:53 Clear 54 12.2 33 0.6 45 45 ENE 5 7 30.05 1018 10 16 0.00 0.00
10:53 pm 22:53 Clear 54 12.2 32 0 43 43 E 6 9 30.04 1017 10 16 0.00 0.00
11:53 pm 23:53 Clear 52 11.1 32 0 47 47 Calm 30.04 1017 10 16 0.00 0.00

Powered by AerisWeather